Temp
50 50 50 51 51 51 50 51 51 51 51 50 50 50 50 51 50 45 38 40 36 30 32 33 33 28 28 23 15 17 19 17 18 14 6 19 12 20 16 21 18 18 14 11 14 7 11 29 27 19 27 32 30 31
50 50 50 50 50 50 50 50 49 49 50 50 49 50 49 50 51 48 35 39 41 33 30 35 36 39 39 35 28 18 21 13 22 13 8 8 5 7 8 1 25 11 19 10 18 18 29 32 31 34 31 25 26 27
49 49 49 49 49 49 50 49 50 49 49 49 49 49 49 49 49 48 36 36 37 33 32 29 30 36 40 39 42 28 20 32 29 29 17 19 10 16 1 5 12 21 27 18 15 25 27 31 33 35 31 29 28 27
48 48 48 48 48 49 49 49 49 48 49 50 49 48 48 48 49 48 35 38 37 33 24 25 32 31 39 39 38 38 36 33 32 29 25 20 11 24 13 21 18 22 23 19 20 26 29 30 31 27 28 28 27 26
47 47 47 47 47 47 48 48 49 48 48 48 48 48 48 48 48 45 38 37 40 33 24 20 22 32 35 34 34 36 34 32 31 26 24 20 18 20 16 23 19 27 24 20 18 30 29 30 32 28 25 24 22 21
47 47 47 47 47 47 47 47 47 48 47 47 47 47 48 48 48 37 31 37 39 38 29 14 27 23 33 34 32 32 32 31 31 27 26 25 31 25 18 10 26 30 31 31 27 32 28 29 28 27 23 20 21 19
46 46 46 46 46 47 47 46 47 47 47 46 46 47 47 47 40 33 30 34 40 39 28 22 17 22 30 28 23 28 30 31 29 28 25 26 28 29 22 16 27 30 31 32 27 22 22 25 22 21 20 19 17 16
45 46 46 45 45 46 46 46 46 47 46 46 46 46 47 47 44 36 40 42 40 34 30 20 20 18 25 17 18 29 27 29 27 26 23 25 27 27 18 26 29 30 28 23 21 19 18 18 17 16 15 14 10 10
45 45 46 45 45 46 46 45 45 46 45 45 45 46 39 37 32 31 43 44 39 32 22 15 11 15 29 25 25 19 28 19 29 23 24 24 21 16 21 27 25 13 11 8 11 11 11 8 8 9 9 7 6 7
42 44 45 44 44 44 45 45 45 45 45 45 39 32 27 29 41 41 33 27 28 29 28 18 8 10 24 21 17 14 20 18 16 17 27 19 16 26 11 11 10 11 8 7 2 2 0 0 3 4 3 5 5 4
42 43 43 43 43 43 44 45 44 45 44 33 30 28 33 41 30 27 23 21 20 17 26 20 23 20 25 16 14 26 19 19 13 10 9 -7 -2 15 6 4 8 8 7 4 2 2 2 1 0 1 1 2 1 -0
42 42 42 42 42 43 43 44 44 39 33 33 32 34 33 29 23 18 17 18 17 15 8 9 13 20 17 21 15 20 15 16 9 -3 1 -3 9 -0 -2 -1 1 2 -2 -4 -2 -2 -0 1 1 -1 -3 -3 -2 -1
41 42 42 42 42 42 42 43 44 43 40 34 29 25 25 21 15 13 5 1 -1 2 4 6 12 19 18 22 16 17 11 7 0 -1 2 6 -1 -3 -6 -5 -4 -3 -4 -3 -3 -2 -3 -4 -4 -5 -5 -3 -2 -2
41 42 42 42 42 43 43 43 44 41 33 26 22 16 16 10 10 9 6 3 6 9 1 6 10 14 9 14 19 10 12 7 1 -1 1 -13 -9 -13 -8 -5 -7 -7 -8 -7 -8 -8 -7 -7 -6 -5 -4 -3 -1 -1
41 41 41 40 41 42 42 43 43 37 30 23 23 14 13 2 -3 -4 -5 4 3 4 9 8 14 22 10 16 19 13 9 1 2 1 -12 -12 -8 -7 -7 -8 -9 -11 -10 -10 -9 -10 -9 -8 -7 -6 -3 -0 -1 -1
41 39 35 40 41 42 42 41 36 32 27 23 17 12 2 4 -0 -2 1 4 7 10 13 15 12 13 10 13 12 7 -2 -3 -0 -22 -19 -14 -17 -15 -15 -14 -12 -11 -12 -11 -11 -10 -8 -8 -7 -5 -1 -1 -2 -2
39 23 39 41 41 42 41 31 29 24 21 12 -2 -7 -6 -1 -1 -8 -3 0 6 3 5 9 8 7 11 10 4 -3 -3 -17 -23 -23 -19 -18 -17 -15 -15 -14 -14 -13 -13 -12 -10 -9 -8 -5 -3 -2 -5 -4 -3 -2
20 26 37 38 36 34 29 25 22 14 3 1 -4 -12 -7 -9 -9 -9 -6 1 2 1 -4 1 4 -4 -5 -6 -5 -19 -23 -26 -24 -21 -14 -14 -19 -18 -17 -16 -14 -13 -12 -11 -12 -9 -5 -2 -3 -4 -4 -3 -3 -2
27 32 35 38 32 26 21 17 13 1 -4 -6 -3 -5 -7 -9 -3 -3 -7 -0 1 -2 -2 -6 -9 -10 -11 -20 -24 -28 -31 -28 -24 -14 -13 -15 -14 -17 -16 -15 -14 -16 -15 -9 -7 -4 -2 -2 -2 -2 -3 -3 -4 -3
32 32 31 31 29 20 13 10 10 -0 -8 -3 -6 -12 -10 -9 -12 -20 -19 -5 -1 -10 -9 -10 -17 -24 -20 -19 -16 -16 -13 -13 -21 -26 -21 -15 -13 -19 -14 -11 -9 -8 -7 -5 -3 -2 -3 -3 -1 -1 -2 -3 -4 -4
26 26 27 21 13 11 7 6 1 0 -2 -7 -9 -8 -10 -14 -24 -24 -22 -7 -12 -8 -16 -26 -28 -24 -22 -23 -22 -25 -18 -17 -21 -20 -22 -20 -10 -8 -5 -6 -7 -7 -8 -7 -7 -6 -5 -6 -3 -1 -2 -2 -2 -1
19 25 15 18 10 5 4 4 1 -1 -7 -12 -11 -16 -24 -23 -26 -25 -14 -19 -17 -22 -24 -24 -25 -26 -28 -26 -24 -25 -23 -27 -25 -18 -10 -8 -10 -8 -7 -8 -9 -10 -9 -9 -8 -8 -7 -6 -4 -3 -3 -3 -1 -1
17 16 8 6 1 -4 -6 -3 -8 -7 -13 -14 -20 -19 -20 -25 -22 -10 -16 -25 -25 -21 -29 -28 -28 -31 -26 -24 -22 -21 -20 -19 -18 -14 -12 -10 -8 -6 -6 -7 -9 -12 -12 -10 -8 -7 -7 -6 -6 -6 -5 -4 -5 -5
8 -3 -7 -9 -10 -16 -14 -14 -11 -14 -15 -18 -20 -23 -22 -25 -14 -18 -21 -32 -25 -27 -25 -25 -25 -20 -19 -19 -19 -17 -14 -11 -11 -10 -10 -10 -9 -8 -7 -8 -9 -10 -11 -11 -10 -9 -8 -9 -8 -9 -10 -10 -9 -9
-4 -18 -15 -21 -17 -18 -22 -24 -22 -19 -22 -23 -22 -21 -20 -19 -18 -24 -22 -25 -28 -29 -23 -21 -18 -18 -19 -15 -10 -11 -10 -9 -8 -9 -9 -9 -9 -8 -8 -7 -7 -10 -10 -13 -14 -13 -12 -11 -11 -12 -13 -15 -17 -17
-24 -26 -24 -28 -24 -22 -25 -25 -26 -23 -24 -23 -21 -22 -26 -20 -22 -23 -23 -27 -30 -21 -16 -13 -14 -15 -14 -10 -11 -9 -8 -7 -9 -10 -7 -8 -9 -11 -12 -12 -13 -11 -13 -16 -19 -19 -16 -14 -15 -16 -16 -17 -18 -23
-27 -28 -25 -25 -23 -22 -24 -23 -22 -20 -24 -23 -24 -22 -19 -23 -25 -20 -25 -20 -15 -14 -12 -11 -10 -10 -9 -10 -8 -7 -7 -8 -9 -8 -8 -8 -9 -11 -13 -16 -16 -13 -16 -17 -20 -23 -21 -18 -16 -17 -21 -23 -28 -30
-27 -29 -24 -26 -27 -30 -29 -29 -27 -26 -23 -20 -22 -22 -20 -16 -18 -21 -15 -9 -13 -11 -10 -11 -9 -7 -9 -7 -7 -8 -9 -11 -11 -13 -15 -14 -13 -13 -14 -13 -14 -5 -11 -15 -16 -15 -17 -17 -16 -19 -25 -24 -24 -28
-29 -33 -29 -29 -32 -30 -31 -29 -30 -32 -29 -32 -27 -23 -20 -18 -19 -20 -14 -12 -15 -11 -11 -13 -10 -9 -9 -9 -10 -12 -14 -16 -15 -15 -16 -15 -15 -11 -13 -14 -16 -19 -19 -24 -14 -5 -7 -7 -10 -16 -20 -23 -24 -33
-29 -35 -27 -30 -28 -27 -29 -33 -34 -38 -38 -33 -33 -26 -23 -20 -17 -14 -15 -14 -11 -12 -9 -10 -13 -11 -14 -18 -18 -17 -21 -19 -15 -14 -18 -18 -16 -18 -24 -24 -21 -19 -23 -30 -20 -19 -14 -19 -19 -24 -24 -24 -26 -26
-38 -38 -32 -34 -29 -35 -38 -44 -45 -42 -41 -40 -44 -34 -31 -31 -24 -22 -16 -16 -20 -27 -24 -24 -26 -31 -25 -25 -27 -28 -18 -22 -22 -18 -18 -19 -21 -21 -20 -18 -18 -24 -28 -27 -25 -27 -23 -24 -27 -25 -24 -23 -22 -22
-40 -38 -31 -26 -29 -37 -43 -43 -44 -39 -42 -39 -35 -43 -33 -30 -27 -21 -24 -24 -27 -26 -19 -23 -24 -14 -18 -15 -24 -21 -15 -18 -26 -19 -19 -17 -17 -15 -15 -16 -19 -25 -26 -22 -22 -22 -22 -22 -20 -19 -19 -21 -21 -21
-45 -46 -47 -38 -33 -31 -38 -38 -37 -35 -38 -39 -37 -43 -43 -35 -24 -20 -22 -25 -21 -16 -16 -16 -14 -20 -21 -19 -18 -17 -15 -15 -15 -7 -5 -6 -9 -9 -11 -14 -18 -19 -19 -18 -17 -17 -18 -18 -17 -17 -18 -18 -19 -19
MSLP
1014.17 1014.20 1014.23 1014.13 1014.13 1014.23 1014.33 1014.32 1014.38 1014.44 1014.44 1014.55 1014.53 1014.67 1014.87 1015.00 1015.36 1015.95 1016.31 1016.50 1016.95 1016.76 1016.05 1016.13 1016.01 1016.17 1016.44 1017.03 1017.49 1017.76 1018.20 1018.28 1018.58 1018.84 1019.46 1019.14 1018.83 1017.83 1017.18 1016.18 1015.56 1015.28 1015.00 1014.13 1012.92 1011.84 1010.53 1010.39 1010.38 1011.64 1011.01 1010.37 1011.00 1010.66
1013.22 1013.15 1013.11 1013.19 1013.23 1013.30 1013.33 1013.36 1013.54 1013.68 1013.44 1013.63 1013.71 1013.80 1014.01 1014.14 1014.29 1014.76 1015.67 1015.75 1015.87 1016.31 1015.49 1015.10 1015.05 1014.95 1015.34 1015.29 1016.13 1017.22 1017.13 1017.30 1017.19 1017.79 1018.88 1018.93 1019.28 1018.69 1017.69 1017.09 1015.81 1015.35 1014.34 1013.90 1013.66 1011.99 1010.88 1010.41 1011.08 1010.66 1010.62 1010.99 1011.32 1011.37
1012.10 1011.93 1012.02 1012.14 1012.21 1012.40 1012.43 1012.49 1012.45 1012.57 1012.59 1012.67 1012.84 1012.93 1013.08 1013.24 1013.47 1013.72 1014.57 1015.01 1015.51 1015.43 1014.87 1014.73 1014.04 1014.01 1014.08 1014.28 1014.35 1015.46 1015.49 1015.65 1015.89 1016.12 1017.40 1017.92 1018.29 1017.69 1017.45 1016.39 1015.39 1014.59 1013.51 1013.35 1012.87 1011.76 1011.32 1010.72 1010.47 1010.54 1010.79 1010.93 1011.06 1011.21
1010.85 1010.91 1011.02 1011.17 1011.27 1011.26 1011.38 1011.50 1011.49 1011.69 1011.71 1011.56 1011.76 1012.00 1012.18 1012.37 1012.61 1012.94 1013.65 1014.08 1014.64 1014.56 1014.09 1013.13 1013.03 1012.93 1012.28 1012.88 1013.40 1013.58 1013.58 1014.42 1014.76 1015.39 1016.04 1016.43 1016.66 1015.54 1015.48 1014.72 1014.39 1013.72 1013.13 1012.44 1011.80 1011.14 1010.47 1010.07 1010.06 1010.49 1010.65 1010.88 1011.12 1011.22
1009.69 1009.74 1009.89 1010.04 1010.19 1010.36 1010.52 1010.64 1010.51 1010.69 1010.83 1010.82 1010.87 1010.98 1011.21 1011.47 1011.81 1012.15 1012.59 1012.73 1013.10 1013.98 1013.07 1013.18 1012.77 1012.15 1011.90 1012.10 1012.49 1012.66 1013.03 1013.49 1013.90 1014.27 1014.30 1014.37 1014.23 1014.39 1014.19 1013.77 1012.81 1012.23 1011.83 1011.62 1010.23 1009.96 1010.00 1009.64 1009.73 1010.31 1010.78 1011.20 1011.56 1011.68
1008.36 1008.46 1008.63 1008.85 1009.02 1009.22 1009.44 1009.56 1009.71 1009.64 1009.92 1010.00 1010.03 1010.06 1010.18 1010.49 1010.92 1011.75 1011.88 1011.62 1011.79 1012.62 1012.75 1012.62 1011.39 1011.07 1010.84 1011.11 1011.41 1011.76 1011.74 1012.44 1013.03 1012.88 1012.71 1012.67 1012.36 1012.73 1012.41 1011.80 1010.78 1010.73 1010.29 1009.96 1009.66 1009.88 1010.12 1009.89 1010.27 1010.82 1011.44 1011.86 1011.90 1012.06
1007.08 1007.20 1007.44 1007.64 1007.89 1008.08 1008.32 1008.62 1008.70 1008.71 1008.98 1009.14 1009.20 1009.17 1009.35 1009.63 1010.13 1010.53 1010.57 1010.28 1010.51 1011.75 1012.37 1012.30 1011.62 1010.72 1010.20 1010.64 1011.03 1011.28 1011.32 1011.56 1011.93 1011.80 1011.35 1011.46 1011.15 1011.39 1011.04 1010.36 1010.12 1009.72 1009.61 1009.57 1009.97 1010.77 1010.86 1010.67 1011.23 1011.88 1012.21 1012.36 1012.46 1012.11
1005.91 1006.06 1006.29 1006.56 1006.89 1007.03 1007.18 1007.44 1007.72 1007.82 1008.09 1008.27 1008.37 1008.48 1008.60 1008.81 1009.10 1009.27 1009.65 1010.01 1010.61 1011.22 1011.50 1011.54 1011.14 1011.69 1010.74 1010.96 1010.88 1010.31 1010.70 1010.92 1011.04 1010.69 1010.74 1010.62 1010.59 1010.75 1010.17 1009.89 1009.53 1009.52 1010.13 1010.75 1011.71 1012.26 1012.50 1012.46 1012.61 1012.75 1013.04 1012.92 1012.40 1011.76
1004.67 1004.96 1005.05 1005.38 1005.73 1005.89 1006.11 1006.49 1006.80 1006.87 1007.28 1007.51 1007.64 1007.72 1007.92 1008.08 1008.22 1008.40 1008.08 1008.71 1009.48 1010.52 1010.37 1010.49 1010.91 1011.15 1010.66 1010.50 1010.27 1010.43 1009.97 1010.42 1009.88 1010.00 1010.02 1010.52 1010.44 1010.10 1009.78 1010.14 1010.91 1012.14 1012.87 1013.60 1013.81 1013.92 1013.94 1013.99 1013.70 1013.51 1013.45 1013.10 1013.06 1011.87
1003.97 1003.95 1004.06 1004.33 1004.72 1005.02 1005.14 1005.49 1005.88 1006.10 1006.52 1006.81 1007.29 1007.56 1007.02 1007.05 1006.73 1007.24 1008.22 1009.08 1009.53 1009.47 1009.61 1009.58 1010.21 1010.64 1010.21 1010.04 1010.03 1010.28 1009.85 1009.99 1009.89 1009.83 1009.83 1010.52 1010.64 1010.50 1012.25 1012.84 1013.54 1014.15 1014.96 1015.40 1015.44 1015.28 1015.32 1014.97 1014.99 1014.24 1014.03 1013.59 1013.12 1012.36
1003.06 1003.07 1003.18 1003.36 1003.68 1004.00 1004.23 1004.53 1005.01 1005.38 1005.83 1006.30 1006.29 1006.32 1006.43 1006.59 1006.74 1007.62 1008.39 1008.81 1008.96 1009.07 1008.94 1008.83 1009.03 1009.09 1008.80 1009.11 1009.43 1009.32 1009.21 1009.64 1009.97 1010.40 1011.42 1012.48 1012.81 1012.94 1014.34 1015.09 1015.64 1016.17 1016.61 1017.05 1017.35 1017.16 1016.91 1016.44 1015.56 1014.69 1013.58 1013.35 1013.02 1012.29
1002.01 1002.12 1002.30 1002.61 1002.84 1003.02 1003.28 1003.69 1004.15 1004.64 1005.16 1005.39 1005.90 1006.24 1006.20 1006.34 1007.21 1008.02 1008.28 1008.68 1009.09 1009.39 1009.47 1009.08 1008.38 1008.05 1007.99 1007.99 1008.49 1008.86 1009.20 1010.14 1010.84 1011.83 1013.13 1014.39 1013.98 1015.59 1016.52 1017.04 1017.42 1017.78 1018.02 1018.01 1017.96 1017.44 1017.04 1016.56 1016.04 1015.42 1014.72 1013.61 1012.91 1011.98
1001.10 1001.20 1001.42 1001.64 1001.89 1002.13 1002.38 1002.72 1003.12 1003.60 1004.42 1005.32 1005.70 1005.89 1006.00 1006.47 1007.32 1007.99 1008.86 1009.91 1010.17 1009.55 1009.00 1009.12 1008.70 1008.09 1008.05 1007.69 1008.06 1008.61 1009.19 1010.41 1011.63 1013.39 1014.59 1014.83 1016.04 1017.31 1018.02 1018.28 1018.30 1018.54 1018.49 1018.34 1017.91 1017.51 1016.99 1016.32 1015.78 1015.22 1014.10 1013.26 1012.37 1011.38
1000.14 1000.20 1000.35 1000.53 1000.82 1001.07 1001.38 1001.79 1002.18 1002.89 1003.98 1004.27 1004.85 1005.37 1005.97 1006.74 1007.32 1008.06 1008.86 1009.38 1009.52 1009.70 1009.84 1009.16 1008.62 1008.31 1007.82 1007.87 1008.05 1008.61 1009.21 1010.96 1013.11 1015.10 1015.73 1016.75 1017.91 1018.61 1018.99 1018.97 1018.94 1018.75 1018.63 1018.22 1017.75 1017.27 1016.72 1016.07 1015.04 1014.25 1013.39 1012.55 1011.59 1010.49
999.09 999.34 999.54 999.81 999.90 1000.16 1000.49 1000.73 1001.32 1002.08 1002.90 1003.40 1003.93 1004.97 1006.34 1007.43 1008.28 1008.90 1009.39 1010.12 1010.67 1010.36 1009.76 1009.37 1008.71 1008.18 1008.27 1008.23 1008.27 1009.29 1010.68 1012.42 1014.40 1016.00 1017.45 1018.61 1019.33 1019.76 1019.65 1019.55 1019.41 1019.02 1018.56 1018.08 1017.53 1016.84 1016.08 1015.37 1014.51 1013.45 1012.61 1011.76 1011.07 1010.30
998.10 998.62 998.86 998.96 999.10 999.31 999.55 1000.08 1000.68 1001.70 1002.01 1003.32 1004.78 1006.63 1008.08 1008.95 1010.09 1010.27 1011.07 1011.37 1011.55 1010.90 1010.12 1009.69 1009.38 1009.12 1009.04 1009.29 1010.16 1011.47 1013.41 1015.00 1016.56 1018.46 1019.43 1019.90 1020.24 1020.42 1020.26 1019.93 1019.57 1019.09 1018.53 1017.78 1017.04 1016.21 1015.28 1014.49 1013.65 1012.74 1011.84 1011.29 1010.68 1010.10
997.67 998.16 998.09 998.10 998.19 998.45 998.93 1000.06 1000.55 1001.46 1003.03 1005.56 1007.93 1008.66 1009.48 1009.94 1011.17 1012.62 1012.54 1012.58 1012.47 1012.07 1011.51 1011.14 1010.85 1010.32 1010.64 1011.57 1013.05 1014.20 1015.88 1017.89 1019.34 1020.48 1020.51 1020.70 1020.90 1020.64 1020.25 1019.82 1019.27 1018.61 1017.92 1017.07 1016.16 1015.30 1014.50 1013.63 1012.83 1012.13 1011.52 1010.96 1010.47 1009.87
997.57 997.63 997.54 997.72 998.28 998.70 999.20 999.72 1001.38 1003.36 1006.30 1008.59 1009.33 1010.40 1011.00 1011.91 1013.48 1014.09 1014.08 1013.73 1013.31 1013.02 1012.76 1012.78 1012.68 1013.14 1013.88 1015.12 1015.95 1017.88 1019.06 1020.05 1020.81 1021.04 1020.98 1020.84 1020.68 1020.47 1019.97 1019.46 1018.66 1017.90 1017.11 1016.24 1015.49 1014.63 1013.78 1012.91 1012.34 1011.82 1011.35 1010.83 1010.29 1009.72
997.91 997.57 996.98 997.45 998.36 999.18 1000.31 1002.16 1003.63 1006.59 1008.92 1010.33 1011.42 1012.08 1013.31 1014.50 1015.04 1015.25 1015.13 1014.80 1014.36 1014.27 1014.31 1014.84 1015.74 1016.53 1016.73 1017.81 1018.90 1019.76 1020.94 1021.32 1021.96 1021.51 1021.07 1020.63 1020.22 1019.93 1019.32 1018.60 1017.82 1017.13 1016.46 1015.70 1014.85 1013.98 1013.34 1012.73 1012.15 1011.65 1011.30 1010.85 1010.36 1009.83
998.01 997.77 997.69 997.86 998.42 1000.23 1002.26 1004.36 1005.54 1007.04 1009.67 1011.50 1012.80 1014.48 1015.00 1015.73 1016.33 1016.55 1016.30 1015.76 1015.47 1015.68 1016.47 1017.52 1018.33 1018.99 1019.22 1019.73 1020.32 1020.92 1021.30 1021.55 1021.82 1021.73 1021.04 1020.30 1019.72 1019.15 1018.55 1017.90 1017.39 1016.78 1016.10 1015.38 1014.57 1013.92 1013.26 1012.65 1012.08 1011.71 1011.36 1010.96 1010.59 1010.19
998.82 999.35 998.97 999.15 1001.34 1002.99 1005.07 1006.47 1008.13 1009.87 1011.54 1013.54 1014.35 1014.81 1016.44 1017.03 1017.80 1018.24 1018.00 1017.28 1017.31 1017.96 1018.93 1019.83 1020.15 1020.55 1020.70 1020.82 1020.99 1021.25 1021.47 1021.62 1021.62 1021.50 1021.12 1020.40 1019.24 1018.67 1018.08 1017.77 1017.34 1016.83 1016.32 1015.68 1014.95 1014.26 1013.73 1013.30 1012.73 1012.09 1011.64 1011.27 1010.92 1010.62
1000.77 1000.54 1001.12 1001.58 1003.40 1005.39 1007.11 1008.42 1009.35 1010.69 1012.13 1014.12 1015.51 1016.46 1017.69 1019.01 1018.97 1018.95 1018.66 1018.87 1019.28 1019.82 1020.28 1020.64 1021.10 1021.18 1021.27 1021.28 1021.40 1021.13 1021.01 1020.94 1020.71 1020.50 1020.05 1019.63 1019.16 1018.60 1018.14 1018.03 1017.63 1017.25 1016.75 1016.36 1015.75 1015.20 1014.69 1014.11 1013.40 1012.74 1012.26 1011.91 1011.54 1011.27
1001.71 1001.83 1003.51 1004.65 1006.02 1008.04 1010.64 1010.09 1011.15 1012.58 1014.30 1015.88 1016.70 1017.87 1019.05 1019.43 1019.05 1018.81 1019.57 1020.25 1020.35 1020.24 1020.60 1020.98 1020.94 1020.89 1021.17 1020.82 1020.77 1020.71 1020.59 1020.39 1020.46 1020.02 1019.72 1019.36 1018.97 1018.67 1018.41 1018.23 1018.14 1017.94 1017.53 1017.10 1016.63 1016.12 1015.54 1014.92 1014.28 1013.73 1013.28 1012.89 1012.61 1012.42
1004.12 1006.68 1008.41 1009.52 1010.73 1012.54 1012.53 1013.24 1013.64 1014.75 1015.84 1016.88 1017.84 1019.07 1019.57 1019.79 1019.12 1019.66 1020.38 1020.58 1020.34 1020.52 1020.85 1020.99 1020.86 1020.97 1020.87 1020.75 1020.71 1020.58 1020.10 1019.93 1019.80 1019.68 1019.49 1019.23 1018.92 1018.68 1018.48 1018.40 1018.49 1018.54 1018.51 1018.10 1017.48 1016.93 1016.35 1015.86 1015.43 1015.03 1014.70 1014.33 1014.13 1013.99
1007.39 1013.32 1013.56 1014.50 1014.84 1015.20 1016.05 1016.44 1016.73 1017.18 1018.08 1018.26 1019.00 1019.57 1019.58 1019.41 1019.60 1020.15 1020.54 1020.30 1020.40 1020.96 1020.37 1020.48 1020.49 1020.34 1020.42 1020.16 1019.96 1019.75 1019.59 1019.60 1019.56 1019.48 1019.35 1019.24 1019.07 1018.83 1018.67 1018.56 1018.50 1018.78 1018.79 1018.54 1018.22 1017.84 1017.34 1016.91 1016.58 1016.30 1016.06 1015.80 1015.66 1015.54
1013.67 1017.35 1017.65 1018.11 1018.07 1017.96 1018.83 1018.87 1019.02 1019.27 1019.24 1019.76 1019.98 1019.86 1019.70 1019.79 1020.02 1019.93 1019.43 1019.39 1019.43 1019.45 1019.35 1019.46 1019.60 1019.68 1019.58 1019.40 1019.41 1019.34 1019.33 1019.38 1019.44 1019.30 1018.88 1018.99 1019.08 1019.14 1019.12 1019.08 1018.96 1018.90 1018.98 1019.13 1019.09 1018.72 1018.21 1017.66 1017.35 1017.10 1016.90 1016.73 1016.72 1016.68
1017.67 1019.72 1019.91 1019.60 1019.69 1019.73 1020.34 1020.47 1020.46 1020.53 1020.83 1020.88 1020.95 1020.72 1020.37 1020.18 1019.73 1018.76 1018.38 1018.18 1018.16 1018.04 1018.01 1018.19 1018.48 1018.69 1018.76 1018.92 1018.97 1018.98 1019.07 1019.15 1019.15 1018.99 1018.84 1018.81 1018.84 1018.97 1019.16 1019.24 1019.17 1018.86 1018.81 1018.90 1019.11 1018.88 1018.57 1017.99 1017.48 1017.33 1017.38 1017.24 1017.23 1017.29
1020.45 1021.53 1021.72 1021.86 1021.54 1021.95 1022.19 1022.41 1022.46 1022.46 1022.39 1022.20 1021.95 1021.49 1020.78 1019.72 1019.12 1018.24 1017.88 1017.62 1017.56 1017.53 1017.75 1017.98 1018.15 1018.30 1018.53 1018.64 1018.75 1018.92 1018.95 1018.97 1018.95 1018.75 1018.64 1018.51 1018.40 1018.45 1018.61 1018.71 1018.66 1018.59 1018.56 1018.54 1018.43 1018.18 1017.91 1017.47 1017.13 1017.09 1017.36 1017.49 1017.28 1017.11
1022.44 1022.84 1022.76 1023.14 1023.04 1023.26 1023.91 1024.13 1024.43 1024.21 1023.80 1023.82 1023.41 1022.19 1020.94 1019.58 1018.61 1018.23 1017.73 1017.68 1017.67 1017.85 1018.16 1018.33 1018.40 1018.48 1018.61 1018.69 1018.71 1018.73 1018.88 1019.13 1019.41 1019.23 1019.14 1018.92 1018.72 1018.33 1017.94 1018.15 1018.28 1018.37 1018.38 1018.32 1017.97 1017.46 1017.11 1016.75 1016.26 1016.42 1016.76 1016.98 1016.95 1017.04
1024.45 1024.29 1024.09 1024.28 1024.35 1024.70 1024.88 1025.08 1025.57 1025.04 1024.76 1024.57 1024.26 1023.03 1021.72 1020.02 1018.37 1017.89 1017.82 1017.88 1018.00 1018.12 1018.10 1018.17 1018.32 1018.77 1018.95 1019.00 1018.88 1018.93 1018.63 1018.81 1018.83 1019.01 1018.77 1018.54 1018.63 1018.29 1018.21 1018.29 1018.18 1017.94 1017.92 1017.99 1017.71 1017.23 1016.86 1016.72 1016.46 1016.55 1016.52 1016.66 1016.60 1016.48
1025.50 1025.29 1025.28 1025.05 1025.29 1025.48 1025.93 1026.27 1026.09 1025.92 1025.53 1025.28 1024.98 1024.66 1023.21 1021.48 1019.23 1017.79 1017.67 1017.48 1017.70 1018.26 1018.82 1018.98 1019.16 1019.33 1019.18 1019.01 1019.23 1019.35 1018.84 1018.18 1017.94 1017.86 1017.80 1017.73 1017.68 1017.65 1017.45 1017.22 1017.06 1017.04 1017.12 1017.32 1017.34 1016.98 1016.78 1016.60 1016.35 1016.23 1016.09 1015.89 1015.58 1015.44
1026.23 1026.67 1026.74 1026.16 1025.98 1025.94 1026.32 1026.52 1026.35 1026.09 1025.84 1025.80 1025.50 1025.29 1023.73 1022.80 1021.05 1018.22 1017.07 1017.42 1018.16 1018.39 1018.07 1018.36 1018.49 1018.15 1017.77 1017.84 1018.07 1017.86 1017.36 1017.38 1017.46 1017.17 1017.08 1016.98 1016.74 1016.35 1016.19 1016.09 1016.05 1016.17 1016.38 1016.44 1016.24 1015.98 1015.83 1015.71 1015.40 1015.11 1015.00 1014.69 1014.47 1014.29
1027.37 1027.51 1027.56 1027.00 1026.54 1026.48 1026.60 1026.62 1026.11 1025.65 1025.51 1025.27 1025.29 1024.80 1024.15 1023.58 1021.78 1018.43 1016.86 1016.69 1016.88 1017.00 1017.04 1017.11 1016.94 1016.92 1016.92 1016.88 1016.82 1016.62 1016.52 1016.33 1016.13 1016.06 1015.83 1015.66 1015.42 1015.15 1015.03 1014.86 1014.78 1014.92 1015.09 1014.96 1014.75 1014.59 1014.44 1014.32 1014.13 1013.81 1013.64 1013.49 1013.24 1013.02
Wind_Speed
21 20 21 22 20 20 20 21 21 21 23 20 21 20 19 18 16 11 4 7 6 4 9 6 5 5 1 3 5 5 5 4 2 2 4 4 3 3 2 3 2 5 4 4 4 4 15 18 7 5 10 7 8 13
23 22 22 19 20 20 19 20 19 23 22 20 21 20 19 21 19 15 4 5 6 5 5 3 6 12 10 10 5 3 6 6 5 3 1 3 2 1 5 5 4 5 7 5 4 5 20 16 8 11 0 4 4 6
25 24 23 23 20 21 21 20 21 21 22 21 21 20 20 21 20 15 4 4 3 5 7 7 11 12 12 12 14 9 3 7 7 4 4 3 5 4 3 7 3 5 7 4 2 7 10 17 15 9 3 4 4 5
25 24 24 23 23 21 21 21 22 20 23 22 21 22 21 20 19 18 4 5 5 2 4 9 1 5 9 13 14 14 17 2 2 3 5 5 4 7 5 6 7 8 1 8 10 15 17 15 7 3 5 4 7 9
26 25 24 25 24 23 21 22 21 19 21 21 20 19 21 21 20 13 4 6 8 6 2 3 1 6 5 8 14 14 14 14 9 7 5 6 4 2 3 3 8 11 15 12 15 16 14 17 9 1 6 5 5 10
26 25 24 23 23 23 23 22 22 20 19 20 22 21 20 21 19 3 4 6 8 7 4 2 3 4 10 13 13 13 13 9 7 4 5 5 7 4 5 5 12 15 18 20 20 17 9 12 9 4 4 9 11 12
26 24 25 24 23 22 21 21 22 20 19 19 20 19 18 18 7 5 3 3 12 7 3 3 5 4 6 5 2 3 4 4 5 4 6 6 9 8 6 11 16 16 15 16 2 1 9 9 4 10 11 11 13 14
25 23 22 22 23 23 21 21 21 19 18 18 18 18 18 19 16 11 8 7 9 3 4 4 4 3 2 2 3 5 6 5 6 5 1 6 6 7 8 13 18 18 9 3 4 5 6 11 10 8 10 11 16 17
25 23 22 22 23 23 20 20 21 19 16 16 16 18 7 5 5 4 13 19 6 4 3 3 5 6 3 3 1 3 3 4 3 6 7 5 6 8 11 13 5 8 5 6 7 6 4 8 14 13 13 14 14 18
19 20 20 22 22 23 20 19 20 19 15 14 6 3 4 4 10 10 4 3 4 4 5 4 3 4 6 4 3 3 2 4 4 5 2 5 7 13 9 8 8 8 8 8 6 6 8 10 11 16 15 14 15 17
21 19 20 21 22 22 21 18 18 17 12 3 4 4 1 10 3 3 5 5 4 3 5 4 10 6 2 4 4 4 3 3 3 7 7 2 4 2 6 8 8 8 8 7 5 8 10 12 16 17 20 16 18 19
20 20 19 19 21 20 20 19 18 10 4 5 3 3 3 3 3 5 6 3 4 6 3 5 6 5 2 4 4 4 4 4 5 1 5 3 4 4 6 5 7 7 8 8 7 11 13 15 15 16 17 19 19 20
20 19 18 18 19 20 19 19 20 16 9 2 4 5 4 4 7 7 8 3 1 3 3 2 2 2 1 2 2 3 5 6 3 3 6 6 4 3 4 5 6 6 6 9 11 11 14 16 15 15 18 16 18 18
19 19 19 19 20 19 19 19 20 15 5 6 7 8 8 4 5 5 7 6 4 2 2 2 1 3 2 2 3 4 5 4 2 4 9 1 2 4 5 5 6 11 10 11 12 12 13 14 16 15 15 15 16 16
18 16 17 16 19 18 19 20 20 9 5 6 6 8 5 2 2 3 3 4 2 1 0 2 2 2 2 4 4 2 2 4 6 7 2 3 4 7 8 8 10 11 11 12 11 12 14 14 13 15 14 13 13 13
17 15 9 14 15 17 19 16 8 4 4 3 2 4 1 3 1 4 2 3 2 2 1 1 2 3 4 3 4 6 5 7 5 2 4 2 4 4 6 7 9 10 11 12 11 12 13 13 13 14 13 11 10 12
14 4 11 17 17 18 17 4 3 3 3 5 1 2 2 5 5 1 1 2 3 2 3 2 5 9 2 2 3 4 6 2 4 4 3 3 5 7 7 8 10 10 11 11 11 11 11 11 11 9 10 10 10 8
4 3 8 8 1 5 2 2 4 5 6 1 1 1 3 4 4 1 0 2 1 2 2 4 2 2 5 6 5 2 2 3 3 3 4 5 5 7 7 9 10 9 9 9 9 10 10 8 8 6 8 8 8 6
6 10 15 12 7 3 3 4 5 5 3 2 3 4 4 3 3 3 1 1 1 1 2 3 3 4 4 2 4 3 2 3 3 3 4 6 6 7 8 8 8 5 6 8 9 6 6 7 6 5 5 5 5 5
16 23 21 22 10 3 5 4 3 5 4 2 4 2 3 3 0 2 2 2 1 3 2 2 4 4 4 3 3 2 2 2 1 3 4 3 4 4 6 5 6 8 7 8 7 8 6 6 5 5 4 4 4 5
10 10 15 8 5 7 6 3 5 3 4 4 2 3 3 3 4 3 2 3 3 1 2 3 3 3 1 1 1 1 2 2 3 4 4 4 5 5 5 6 6 5 5 6 7 8 8 7 6 6 5 5 4 4
4 10 4 7 6 5 6 6 4 2 5 2 3 2 3 2 2 2 2 4 0 3 4 3 3 2 1 1 2 4 4 2 3 2 4 4 3 4 5 6 6 6 6 6 7 7 7 7 7 6 6 6 6 6
7 7 5 7 7 8 2 3 6 4 5 1 3 4 3 2 3 0 1 2 4 3 3 3 3 4 3 3 0 2 2 2 1 1 2 2 2 3 3 4 5 5 6 6 7 7 7 10 9 7 7 7 6 6
12 9 8 6 6 2 3 6 3 4 4 4 4 2 2 2 2 3 2 3 4 1 1 2 2 2 2 3 1 1 1 0 1 1 1 2 1 2 3 2 2 3 4 5 5 6 6 7 9 7 7 7 7 6
10 11 7 7 5 7 7 6 5 5 3 2 4 2 2 2 2 1 3 4 1 2 2 2 2 2 3 2 0 1 1 0 0 1 1 0 1 1 2 2 0 2 4 5 6 7 7 6 6 6 6 6 6 6
11 5 5 1 3 5 0 4 3 2 2 3 1 2 2 3 2 5 4 4 4 4 4 4 4 2 1 2 2 1 2 1 1 2 2 3 1 0 1 3 3 2 2 0 2 4 6 5 4 6 5 5 6 5
7 4 4 1 1 2 4 2 1 3 3 2 1 2 2 1 5 5 3 3 2 3 4 4 4 3 3 2 2 2 2 2 4 3 3 3 3 3 3 2 3 3 1 2 2 3 4 6 6 5 4 3 3 2
3 2 3 4 4 1 4 2 2 2 2 1 2 2 5 5 5 4 3 1 2 2 3 2 2 2 2 2 1 1 2 0 3 3 2 3 3 4 4 4 4 9 4 3 4 4 4 5 6 5 3 4 4 3
3 3 2 4 3 4 1 3 3 3 2 3 4 3 4 3 3 2 2 1 1 3 3 2 2 1 1 1 2 2 2 2 1 2 2 3 3 3 3 3 3 3 3 3 8 8 7 8 4 4 5 4 4 3
3 2 3 2 3 1 3 3 2 3 2 2 1 3 3 4 3 2 1 2 4 4 3 2 2 3 3 3 3 4 2 4 5 5 4 4 5 3 2 3 4 4 3 3 5 6 7 4 5 4 3 4 3 4
1 3 3 2 2 3 3 2 2 1 2 1 1 3 4 5 6 3 4 3 3 3 3 2 3 3 4 4 4 2 5 3 6 8 6 4 4 5 5 5 5 3 3 3 4 4 4 4 4 5 6 8 8 6
3 2 2 2 3 3 4 3 1 1 3 2 2 2 4 3 4 4 3 4 3 3 6 4 4 7 7 6 3 4 6 4 3 5 8 6 7 7 7 6 4 3 4 6 6 5 6 8 7 7 7 9 9 8
2 1 1 1 4 4 3 2 4 4 2 2 3 2 3 3 6 5 3 4 5 5 5 6 6 3 5 7 6 5 7 6 7 10 11 12 13 12 7 6 5 5 6 6 7 6 9 9 10 11 10 10 11 10
Wind_Direction
260 263 262 263 264 261 269 259 259 271 270 265 257 247 241 241 240 227 225 190 187 240 245 227 194 189 168 143 167 251 18 354 38 151 143 238 205 202 268 208 263 289 299 304 310 291 263 9 355 1 283 289 302 322
264 262 263 264 263 271 273 272 262 264 264 262 260 249 238 234 236 228 214 200 200 221 250 201 233 240 233 219 195 219 202 177 219 112 280 54 324 312 161 265 226 263 205 211 194 261 316 323 292 304 250 217 269 294
260 256 255 256 255 260 271 268 271 262 265 261 256 253 244 241 242 233 192 172 172 234 254 234 230 225 232 228 221 235 246 216 226 177 172 211 219 144 184 234 203 252 257 242 348 261 280 280 293 277 335 293 285 282
261 262 260 258 261 260 258 262 269 267 265 264 257 251 248 244 242 242 170 176 207 238 243 259 8 211 221 218 214 215 239 191 181 152 219 196 195 198 218 238 217 223 234 242 264 273 275 269 256 172 297 263 297 305
259 258 257 256 253 255 260 267 267 261 264 272 266 263 247 244 242 238 214 187 195 212 282 270 309 246 208 181 208 216 229 233 230 231 213 222 222 165 244 248 245 235 251 252 258 263 274 282 284 282 277 283 301 291
257 258 257 256 252 252 251 256 265 266 265 265 263 256 248 243 237 136 242 204 185 187 258 291 301 223 218 207 204 210 213 218 217 210 222 223 221 213 217 220 246 246 241 245 259 276 279 269 288 306 333 321 305 299
257 256 255 255 253 255 253 253 256 265 260 265 261 258 248 244 223 200 196 227 179 152 239 243 267 285 227 193 226 187 176 202 205 226 219 231 236 209 235 248 260 251 256 261 257 71 268 239 289 336 315 314 303 288
258 259 255 250 250 252 249 249 255 263 261 263 261 257 255 250 248 234 196 168 140 184 195 232 247 348 200 205 206 177 187 189 209 222 254 227 249 230 244 246 255 262 274 8 75 16 314 310 308 311 315 311 306 296
251 256 256 250 244 251 253 251 252 258 255 261 262 257 269 234 204 214 194 208 188 188 221 170 161 232 161 227 211 355 166 186 197 210 221 198 221 225 226 254 307 38 47 353 334 316 337 332 311 309 311 306 294 296
257 256 257 248 244 251 251 246 247 255 249 255 254 195 217 218 163 109 83 158 197 201 224 223 96 233 177 178 221 106 164 212 212 235 170 215 237 245 59 76 71 48 44 18 5 337 327 306 304 304 298 295 294 297
265 263 263 250 245 247 249 241 242 243 243 167 212 209 152 165 80 124 192 197 193 215 202 197 196 207 246 163 196 214 192 196 209 249 156 254 275 138 46 41 31 24 12 357 324 291 290 286 299 305 307 306 302 299
260 261 252 253 252 245 243 237 236 229 173 183 138 132 201 157 166 183 189 177 205 211 258 171 213 192 211 129 132 193 190 180 233 106 98 260 236 72 22 354 345 345 331 310 295 296 298 295 294 292 292 292 293 294
259 252 250 250 247 245 243 239 234 219 191 121 201 193 176 179 196 199 171 265 240 226 221 178 211 165 66 209 165 165 182 221 77 82 216 219 88 30 340 317 314 314 300 305 303 299 296 290 289 285 286 288 293 293
260 259 260 252 242 241 240 237 228 226 180 205 188 199 187 196 220 179 175 180 215 153 228 160 123 176 202 119 194 174 218 113 188 198 230 178 237 276 294 305 321 317 311 305 298 297 294 293 292 293 289 292 295 304
253 258 254 252 247 241 236 227 226 207 210 212 196 202 184 188 9 140 122 98 332 250 239 33 31 220 227 218 197 177 208 238 201 221 175 244 303 310 314 319 311 306 306 302 299 296 292 292 293 293 294 303 305 306
246 249 243 240 244 239 240 233 217 185 168 206 63 125 339 102 8 47 58 96 347 330 2 23 157 187 237 208 199 216 135 219 228 186 237 282 276 284 281 286 287 286 287 287 288 286 289 293 292 294 303 310 312 311
247 201 222 239 246 235 221 151 167 120 126 141 148 357 99 72 90 111 1 94 327 41 178 154 187 211 20 220 232 194 207 198 203 260 252 246 269 285 284 287 287 284 285 284 287 293 287 289 288 304 311 319 317 314
182 226 225 244 121 101 50 68 89 61 79 26 152 284 63 61 98 76 286 6 35 98 91 196 66 133 198 190 253 215 237 249 230 241 272 277 269 278 278 282 287 282 284 292 290 289 289 303 315 314 317 316 314 325
67 14 254 208 117 83 82 57 62 110 93 111 75 41 63 82 52 60 45 315 74 135 77 53 110 206 226 174 179 234 243 201 236 285 286 285 279 277 282 285 279 291 300 306 310 312 321 322 315 323 322 322 331 336
51 35 50 67 72 73 74 50 87 83 74 77 54 44 84 81 91 29 354 348 54 73 63 178 210 207 171 200 180 193 224 226 144 322 293 277 277 277 291 326 332 323 322 325 332 349 344 343 349 346 340 351 347 349
34 359 22 44 62 50 64 37 66 80 113 111 200 57 69 27 36 26 346 329 56 42 201 209 207 233 206 216 156 175 259 186 199 189 223 291 319 324 347 352 345 341 345 348 351 353 360 350 341 346 353 358 1 6
360 17 57 20 69 51 71 19 92 86 62 101 59 71 65 54 351 299 232 55 238 225 182 171 209 168 25 306 248 198 228 206 249 251 268 284 318 342 358 2 353 351 356 -0 355 355 345 344 348 354 4 3 14 24
10 27 50 16 77 45 339 18 70 23 85 313 27 56 22 16 245 256 73 209 244 238 180 172 197 183 180 264 113 326 211 108 54 6 332 317 302 340 355 15 7 359 354 357 349 348 352 357 359 5 5 17 18 22
30 44 31 38 39 68 5 25 35 61 58 46 66 57 336 228 296 48 249 257 249 318 105 195 123 81 15 29 63 264 301 22 114 80 355 342 3 349 342 344 21 6 348 314 335 346 355 2 3 7 10 14 19 21
72 354 29 10 4 47 41 20 359 57 83 9 80 15 309 15 46 320 238 266 269 230 211 173 130 131 146 214 201 204 213 68 285 286 217 23 337 321 347 321 52 54 360 355 358 347 347 350 356 358 6 12 7 6
69 311 63 319 327 81 272 70 39 116 93 61 44 276 27 74 53 251 235 219 216 185 179 176 164 151 217 196 180 197 199 190 253 250 224 190 202 136 331 338 330 288 91 110 298 314 328 334 333 345 343 349 356 353
65 346 325 352 117 94 48 33 89 85 83 139 226 55 76 145 249 252 280 229 184 207 172 161 163 168 173 174 212 220 204 212 224 259 286 229 218 198 180 215 274 262 299 261 252 239 282 309 314 319 312 306 269 267
129 40 78 313 45 9 119 73 78 146 172 110 84 174 180 207 242 240 215 244 175 126 113 125 145 149 155 194 211 238 268 269 293 293 290 263 228 215 214 234 246 272 295 278 271 276 264 279 289 292 277 288 292 265
44 319 74 22 15 32 136 148 208 240 196 110 154 245 252 245 243 226 253 191 129 111 133 151 226 171 252 271 262 237 203 160 91 317 296 282 323 295 205 220 243 258 264 273 281 282 275 282 270 245 257 257 275 278
330 2 77 55 96 261 251 163 215 257 245 195 214 315 299 273 248 228 178 141 171 197 201 181 166 169 210 191 277 309 249 194 195 187 198 233 229 239 215 237 260 261 245 245 276 292 308 336 328 333 325 305 292 292
323 37 58 71 212 253 238 286 306 344 20 353 333 167 249 299 303 243 215 193 152 122 120 224 260 217 188 213 199 242 290 258 213 226 234 252 264 261 257 253 244 233 228 241 257 259 269 275 253 275 283 285 285 280
11 79 115 11 302 293 22 45 351 40 330 12 283 333 315 347 287 281 215 125 114 195 221 178 200 245 207 232 216 232 229 265 230 228 233 238 248 251 254 254 243 218 229 241 238 238 237 249 267 264 269 273 273 271
38 29 63 25 4 359 326 42 21 336 4 332 278 222 224 196 245 278 297 208 184 196 204 210 227 231 215 220 226 238 231 240 249 255 255 248 247 254 252 241 225 220 234 246 251 246 254 251 260 262 260 258 264 265